Location: Marion Hill
(40.7303°N, 80.2959°W)
Time: 23:11:29
(UTC+00:00)

Cosmos 2058 Rocket - Pass Details

Date: 29 October 2020
Orbit: 610 x 640 km, 82.5° (Epoch: 29 November)

Event Time Altitude Azimuth Distance (km) Brightness Sun altitude
Rises 23:07:10 0° 185° (S) 2,913 6.7 -9.4°
Reaches altitude 10° 23:09:23 10° 185° (S) 2,013 5.9 -9.8°
Maximum altitude 23:13:51 86° 95° (E) 645 3.1 -10.7°
Drops below altitude 10° 23:18:24 10° 9° (N) 2,038 5.5 -11.5°
Sets 23:20:39 0° 9° (N) 2,953 6.4 -11.9°
